Eastsound, WA
on Tuesday, January 22, 2013

Tuesday
Previous Day Next Day
Daily Summary
 ActualAverage (KBLI)Record (KBLI)
Temperature
Mean Temperature °F 40°F  
Max Temperature 37°F 46°F 65°F (1981)
Min Temperature 33°F 33°F 11°F (1969)
Degree Days
Heating Degree Days 30 25  
Month to date heating degree days 573  
Cooling Degree Days 0 0  
Month to date cooling degree days 0  
Year to date cooling degree days 0  
Moisture
Dew Point 34°F   
Average Humidity 90    
Maximum Humidity 100    
Minimum Humidity 81    
Precipitation
Precipitation 0.00 in 0.14 in 1.06 in (1953)
Month to date precipitation 3.39  
Year to date precipitation 3.39  
Wind
Wind Speed 0 mph   
Max Wind Speed 5 mph   
Max Gust Speed mph   
Visibility 8 miles   
Events     

Key: T is trace of precipitation, MM is missing value
Source: NWS Daily Summary
Time(PST)TemperatureDew PointHumidity Pressure Visibility Wind DirectionWind SpeedGust SpeedPrecipitationEvents Conditions
12:15 AM 35.6°F 33.8°F 93% 30.13 in 5.0 miles Calm Calm - N/A   Overcast
12:35 AM 35.6°F 35.6°F 100% 30.13 in 4.0 miles Calm Calm - N/A   Overcast
12:55 AM 35.6°F 35.6°F 100% 30.13 in 5.0 miles Calm Calm - N/A   Overcast
1:15 AM 35.6°F 35.6°F 100% 30.13 in 5.0 miles Calm Calm - N/A   Overcast
1:35 AM 35.6°F 35.6°F 100% 30.13 in 5.0 miles Calm Calm - N/A   Overcast
1:55 AM 35.6°F 33.8°F 93% 30.13 in 5.0 miles Calm Calm - N/A   Overcast
2:15 AM 35.6°F 33.8°F 93% 30.12 in 5.0 miles Calm Calm - N/A   Overcast
2:35 AM 35.6°F 35.6°F 100% 30.13 in 5.0 miles Calm Calm - N/A   Overcast
2:55 AM 35.6°F 35.6°F 100% 30.12 in 4.0 miles Calm Calm - N/A   Overcast
3:15 AM 35.6°F 33.8°F 93% 30.12 in 5.0 miles Calm Calm - N/A   Overcast
3:35 AM 35.6°F 33.8°F 93% 30.12 in 6.0 miles Calm Calm - N/A   Overcast
3:55 AM 35.6°F 33.8°F 93% 30.12 in 5.0 miles Calm Calm - N/A   Overcast
4:15 AM 35.6°F 33.8°F 93% 30.12 in 6.0 miles Calm Calm - N/A   Overcast
4:35 AM 35.6°F 33.8°F 93% 30.10 in 5.0 miles Calm Calm - N/A   Overcast
4:55 AM 35.6°F 33.8°F 93% 30.10 in 5.0 miles Calm Calm - N/A   Overcast
5:15 AM 35.6°F 33.8°F 93% 30.10 in 6.0 miles Calm Calm - N/A   Overcast
5:35 AM 33.8°F 32.0°F 93% 30.09 in 7.0 miles Calm Calm - N/A   Overcast
5:55 AM 35.6°F 33.8°F 93% 30.10 in 7.0 miles Calm Calm - N/A   Overcast
6:15 AM 35.6°F 33.8°F 93% 30.10 in 8.0 miles Calm Calm - N/A   Overcast
6:35 AM 33.8°F 32.0°F 93% 30.09 in 9.0 miles Calm Calm - N/A   Overcast
6:55 AM 33.8°F 32.0°F 93% 30.09 in 8.0 miles Calm Calm - N/A   Overcast
7:15 AM 33.8°F 32.0°F 93% 30.08 in 10.0 miles Calm Calm - N/A   Overcast
7:35 AM 33.8°F 32.0°F 93% 30.08 in 10.0 miles Calm Calm - N/A   Overcast
7:55 AM 33.8°F 32.0°F 93% 30.08 in 10.0 miles Calm Calm - N/A   Overcast
8:15 AM 33.8°F 32.0°F 93% 30.07 in 10.0 miles Calm Calm - N/A   Overcast
8:55 AM 35.6°F 32.0°F 87% 30.08 in 8.0 miles Calm Calm - N/A   Overcast
9:15 AM 35.6°F 32.0°F 87% 30.07 in 10.0 miles NNW 3.5 mph - N/A   Overcast
9:35 AM 35.6°F 32.0°F 87% 30.08 in 9.0 miles Calm Calm - N/A   Mostly Cloudy
9:55 AM 35.6°F 33.8°F 93% 30.07 in 9.0 miles Calm Calm - N/A   Mostly Cloudy
10:15 AM 35.6°F 32.0°F 87% 30.07 in 10.0 miles Calm Calm - N/A   Mostly Cloudy
10:35 AM 37.4°F 32.0°F 81% 30.07 in 9.0 miles Calm Calm - N/A   Partly Cloudy
10:55 AM 37.4°F 32.0°F 81% 30.07 in 10.0 miles Calm Calm - N/A   Clear
11:15 AM 37.4°F 32.0°F 81% 30.07 in 10.0 miles Calm Calm - N/A   Clear
11:35 AM 37.4°F 32.0°F 81% 30.07 in 10.0 miles Calm Calm - N/A   Clear
12:15 PM 37.4°F 32.0°F 81% 30.05 in 10.0 miles Calm Calm - N/A   Clear
12:35 PM 37.4°F 32.0°F 81% 30.04 in 10.0 miles North 4.6 mph - N/A   Clear
12:55 PM 37.4°F 32.0°F 81% 30.03 in 10.0 miles North 3.5 mph - N/A   Clear
1:15 PM 37.4°F 32.0°F 81% 30.02 in 10.0 miles Calm Calm - N/A   Clear
1:35 PM 37.4°F 32.0°F 81% 30.01 in 10.0 miles NNE 4.6 mph - N/A   Clear
1:55 PM 37.4°F 32.0°F 81% 30.01 in 10.0 miles Calm Calm - N/A   Clear
2:15 PM 37.4°F 32.0°F 81% 29.99 in 10.0 miles Calm Calm - N/A   Clear
2:35 PM 37.4°F 32.0°F 81% 29.99 in 10.0 miles Calm Calm - N/A   Clear
2:55 PM 37.4°F 32.0°F 81% 29.98 in 10.0 miles Calm Calm - N/A   Clear
3:15 PM 37.4°F 32.0°F 81% 29.98 in 10.0 miles Calm Calm - N/A   Clear
3:35 PM 37.4°F 32.0°F 81% 29.97 in 10.0 miles Calm Calm - N/A   Clear
3:55 PM 37.4°F 32.0°F 81% 29.98 in 10.0 miles Calm Calm - N/A   Clear
4:15 PM 37.4°F 32.0°F 81% 29.96 in 10.0 miles Calm Calm - N/A   Clear
4:35 PM 37.4°F 32.0°F 81% 29.97 in 10.0 miles Calm Calm - N/A   Clear
4:55 PM 37.4°F 32.0°F 81% 29.97 in 10.0 miles Calm Calm - N/A   Clear
5:15 PM 37.4°F 32.0°F 81% 29.96 in 10.0 miles Calm Calm - N/A   Clear
5:35 PM 35.6°F 33.8°F 93% 29.95 in 10.0 miles Calm Calm - N/A   Clear
5:55 PM 35.6°F 33.8°F 93% 29.95 in 9.0 miles Calm Calm - N/A   Clear
6:15 PM 37.4°F 35.6°F 93% 29.95 in 10.0 miles Calm Calm - N/A   Clear
6:35 PM 37.4°F 33.8°F 87% 29.95 in 10.0 miles Calm Calm - N/A   Clear
6:55 PM 35.6°F 33.8°F 93% 29.94 in 8.0 miles Calm Calm - N/A   Clear
7:15 PM 35.6°F 35.6°F 100% 29.93 in 8.0 miles Calm Calm - N/A   Clear
7:35 PM 35.6°F 35.6°F 100% 29.92 in 7.0 miles Calm Calm - N/A   Clear
7:55 PM 37.4°F 35.6°F 93% 29.92 in 8.0 miles Calm Calm - N/A   Clear
8:35 PM 37.4°F 35.6°F 93% 29.93 in 7.0 miles Calm Calm - N/A   Clear
8:55 PM 37.4°F 35.6°F 93% 29.93 in 8.0 miles Calm Calm - N/A   Clear
9:15 PM 37.4°F 35.6°F 93% 29.91 in 9.0 miles Calm Calm - N/A   Clear
9:35 PM 37.4°F 35.6°F 93% 29.91 in 10.0 miles Calm Calm - N/A   Clear
9:55 PM 37.4°F 35.6°F 93% 29.91 in 9.0 miles Calm Calm - N/A   Clear
10:15 PM 37.4°F 35.6°F 93% 29.91 in 9.0 miles Calm Calm - N/A   Clear
10:35 PM 37.4°F 35.6°F 93% 29.91 in 7.0 miles Calm Calm - N/A   Clear
10:55 PM 37.4°F 35.6°F 93% 29.91 in 8.0 miles Calm Calm - N/A   Clear
11:15 PM 37.4°F 35.6°F 93% 29.92 in 7.0 miles Calm Calm - N/A   Clear
11:35 PM 37.4°F 35.6°F 93% 29.92 in 9.0 miles Calm Calm - N/A   Clear
11:55 PM 37.4°F 35.6°F 93% 29.92 in 9.0 miles Calm Calm - N/A   Partly Cloudy
Moon Phase
Jan. 22 Jan. 26 Feb. 03 Feb. 10 Feb. 17
Sunrise:07:52 AM (PST) Moon Rise:01:17 PM (PST)1/22
Sunset:04:54 PM (PST) Moon Set:04:22 AM (PST)1/22

Copyright © 2014 The Weather Underground, Inc.